This is the latest recevied weather packets stored in our database for station/object KD8UYA. If no packets are shown the sender has not sent any weather packets the latest 10 day(s).
| Time | Temp. | Humidity | Pressure | Rain* | Wind** | Luminosity | Snow |
|---|---|---|---|---|---|---|---|
| 1777523497 | 6.67° C | 99% | 1009.4 hPa | 0 mm | - | - | - |
| 1777522560 | 6.67° C | 99% | 1009.6 hPa | 0 mm | - | - | - |
| 1777521661 | 6.67° C | 99% | 1009.5 hPa | 0 mm | - | - | - |
| 1777520747 | 6.67° C | 98% | 1009.6 hPa | 0 mm | - | - | - |
| 1777519844 | 6.67° C | 99% | 1009.7 hPa | 0 mm | - | - | - |
| 1777518945 | 6.67° C | 98% | 1009.6 hPa | 0 mm | - | - | - |
| 1777518054 | 7.22° C | 98% | 1009.7 hPa | 0 mm | - | - | - |
| 1777517143 | 6.67° C | 98% | 1009.6 hPa | 0 mm | - | - | - |
| 1777516254 | 6.67° C | 98% | 1009.6 hPa | 0 mm | - | - | - |
| 1777515342 | 7.22° C | 98% | 1009.5 hPa | 0 mm | - | - | - |
| 1777514439 | 7.22° C | 98% | 1009.3 hPa | 0 mm | - | - | - |
| 1777513537 | 7.22° C | 98% | 1009.3 hPa | 0.25 mm | - | - | - |
| 1777512637 | 7.22° C | 98% | 1009.3 hPa | 0.25 mm | - | - | - |
| 1777511737 | 7.22° C | 98% | 1009.2 hPa | 0.25 mm | - | - | - |
| 1777509936 | 7.78° C | 98% | 1009.1 hPa | 0 mm | - | - | - |
| 1777509038 | 7.78° C | 98% | 1009 hPa | 0 mm | - | - | - |
| 1777501827 | 7.78° C | 98% | 1008 hPa | 0.25 mm | - | - | - |
| 1777499121 | 8.33° C | 98% | 1007.5 hPa | 0 mm | - | - | - |
| 1777497317 | 8.33° C | 98% | 1007.1 hPa | 0 mm | - | - | - |
| 1777496416 | 8.33° C | 98% | 1006.8 hPa | 0 mm | - | - | - |
| 1777494613 | 8.33° C | 98% | 1006.4 hPa | 0 mm | - | - | - |
| 1777491912 | 8.89° C | 98% | 1006.1 hPa | 0 mm | - | - | - |
| 1777491010 | 8.89° C | 98% | 1006.3 hPa | 0 mm | - | - | - |
| 1777485669 | 10.56° C | 97% | 1006.4 hPa | 0.76 mm | - | - | - |
| 1777482959 | 11.11° C | 97% | 1006.1 hPa | 0.25 mm | - | - | - |
* Rain latest hour (hover to see other rain measurements)
** Current wind speed in m/s (hover to see current wind gust speed)